This demonstration page uses our WeatherBlox Daily Observations layout. Learn more.

Left ArrowRight Arrow

Hourly Observations for May 12, 2022

Temp ( °F °C ) Dew Point ( °F °C ) Humidity (%) Winds ( mph kmh ) Pressure ( in mb ) Visibility ( mi km ) Precip ( " mm )
12:52 am 00:52 Clear 70 21.1 64 17.8 82 82 SSE 9 15 30.01 1016 10 16 0.00 0.00
1:52 am 01:52 Clear 69 20.6 63 17.2 81 81 SSE 8 13 30.01 1016 10 16 0.00 0.00
2:52 am 02:52 Clear 69 20.6 63 17.2 81 81 SSE 6 9 30.00 1016 10 16 0.00 0.00
3:52 am 03:52 Clear 68 20 64 17.8 87 87 S 6 9 29.99 1016 10 16 0.00 0.00
4:52 am 04:52 Clear 66 18.9 63 17.2 90 90 Calm 30.00 1016 10 16 0.00 0.00
5:52 am 05:52 Clear 66 18.9 63 17.2 90 90 Calm 30.00 1016 10 16 0.00 0.00
6:52 am 06:52 Sunny 65 18.3 63 17.2 93 93 SSE 3 6 30.02 1017 9 14 0.00 0.00
7:52 am 07:52 Sunny 71 21.7 67 19.4 87 87 SSE 7 11 30.03 1017 10 16 0.00 0.00
8:52 am 08:52 Sunny 75 23.9 67 19.4 76 76 S 9 15 30.03 1017 10 16 0.00 0.00
9:52 am 09:52 Sunny 77 25 69 20.6 77 77 S 9 15 30.03 1017 10 16 0.00 0.00
10:52 am 10:52 Sunny 80 26.7 70 21.1 71 71 S 10 17 30.02 1017 10 16 0.00 0.00
11:52 am 11:52 Sunny 83 28.3 68 20 61 61 SSE 8 13 30.01 1016 10 16 0.00 0.00
12:52 pm 12:52 Sunny 85 29.4 67 19.4 55 55 SSW 12 19 29.98 1015 10 16 0.00 0.00
1:52 pm 13:52 Sunny 87 30.6 64 17.8 46 46 S 6 9 29.96 1015 10 16 0.00 0.00
2:52 pm 14:52 Sunny 88 31.1 65 18.3 46 46 SSW 6 9 29.94 1014 10 16 0.00 0.00
3:52 pm 15:52 Sunny 89 31.7 65 18.3 45 45 S 10 17 29.91 1013 10 16 0.00 0.00
4:52 pm 16:52 Sunny 89 31.7 66 18.9 47 47 S 9 15 29.90 1012 10 16 0.00 0.00
5:52 pm 17:52 Sunny 89 31.7 67 19.4 48 48 SSE 8 13 29.89 1012 10 16 0.00 0.00
6:52 pm 18:52 Sunny 87 30.6 65 18.3 48 48 S 8 13 29.88 1012 10 16 0.00 0.00
7:52 pm 19:52 Sunny 83 28.3 66 18.9 57 57 SSE 12 19 29.88 1012 10 16 0.00 0.00
8:52 pm 20:52 Clear 81 27.2 64 17.8 57 57 SSE 10 17 29.88 1012 10 16 0.00 0.00
9:52 pm 21:52 Clear 79 26.1 62 16.7 56 56 SSE 10 17 29.88 1012 10 16 0.00 0.00
10:52 pm 22:52 Clear 78 25.6 62 16.7 58 58 SSE 12 19 29.88 1012 10 16 0.00 0.00
11:52 pm 23:52 Clear 75 23.9 63 17.2 66 66 S 9 15 29.88 1012 10 16 0.00 0.00

Powered by AerisWeather